SWR1PL LSZH-EDDB

Flight info

Callsign SWR1PL
Flight time 1h 9m
Altitude 34000
Route DEGES Z1 ETAGO DCT TIKNI/N0459F350 T279 TAMEB T278 KLF KLF1L
Aircraft A320/M-SDE3FGHIRWY/LB1

Departure

Time 2026-02-17 11:21
Airport Zürich Airport (LSZH)

Arrival

Time 2026-02-17 12:30
Airport Berlin Brandenburg Airport (EDDB)
Time Latitude Longitude Altitude Speed Heading
2026-02-17 11:02 47.45439 8.55570 1409 ft 0 kts 186°
2026-02-17 11:13 47.45446 8.55572 1410 ft 3 kts 186°
2026-02-17 11:13 47.45466 8.55575 1407 ft 3 kts 186°
2026-02-17 11:14 47.45486 8.55577 1407 ft 3 kts 176°
2026-02-17 11:14 47.45505 8.55573 1407 ft 3 kts 152°
2026-02-17 11:14 47.45520 8.55556 1415 ft 3 kts 115°
2026-02-17 11:15 47.45525 8.55517 1412 ft 1 kts 96°
2026-02-17 11:15 47.45525 8.55514 1412 ft 1 kts 96°
2026-02-17 11:17 47.45521 8.55568 1416 ft 6 kts 96°
2026-02-17 11:17 47.45515 8.55654 1410 ft 12 kts 96°
2026-02-17 11:17 47.45507 8.55774 1411 ft 11 kts 95°
2026-02-17 11:18 47.45501 8.55877 1410 ft 9 kts 95°
2026-02-17 11:18 47.45492 8.55983 1407 ft 14 kts 97°
2026-02-17 11:18 47.45481 8.56130 1407 ft 17 kts 96°
2026-02-17 11:19 47.45609 8.56260 1412 ft 12 kts 10°
2026-02-17 11:19 47.45718 8.56282 1418 ft 19 kts
2026-02-17 11:19 47.45837 8.56296 1418 ft 16 kts
2026-02-17 11:19 47.45950 8.56314 1412 ft 17 kts
2026-02-17 11:20 47.46062 8.56338 1413 ft 16 kts 21°
2026-02-17 11:20 47.46137 8.56423 1414 ft 11 kts 11°
2026-02-17 11:20 47.46196 8.56355 1409 ft 14 kts 317°
2026-02-17 11:20 47.46400 8.56076 1405 ft 76 kts 316°
2026-02-17 11:21 47.46949 8.55329 1390 ft 136 kts 317°
2026-02-17 11:21 47.47749 8.54241 1599 ft 162 kts 315°
2026-02-17 11:21 47.48568 8.53167 2428 ft 155 kts 312°
2026-02-17 11:21 47.49411 8.52078 2999 ft 173 kts 321°
2026-02-17 11:22 47.50508 8.51112 3326 ft 194 kts 324°
2026-02-17 11:22 47.51708 8.50092 3880 ft 202 kts 327°
2026-02-17 11:22 47.53106 8.49726 4569 ft 220 kts
2026-02-17 11:23 47.55209 8.53176 6016 ft 252 kts 69°
2026-02-17 11:23 47.55600 8.55731 6700 ft 257 kts 76°
2026-02-17 11:23 47.55887 8.58362 7433 ft 260 kts 78°
2026-02-17 11:23 47.56173 8.61036 7974 ft 271 kts 77°
2026-02-17 11:24 47.56512 8.63911 8297 ft 295 kts 76°
2026-02-17 11:24 47.56746 8.67004 8870 ft 309 kts 91°
2026-02-17 11:24 47.56321 8.70153 9624 ft 316 kts 112°
2026-02-17 11:24 47.55226 8.72963 10320 ft 319 kts 132°
2026-02-17 11:25 47.53525 8.75202 10566 ft 338 kts 148°
2026-02-17 11:25 47.51535 8.77271 10741 ft 361 kts 148°
2026-02-17 11:25 47.49443 8.79510 10950 ft 383 kts 142°
2026-02-17 11:25 47.47608 8.82448 11474 ft 395 kts 126°
2026-02-17 11:26 47.46300 8.86039 12140 ft 400 kts 110°
2026-02-17 11:26 47.45589 8.90021 12782 ft 404 kts 100°
2026-02-17 11:26 47.45058 8.94115 13443 ft 407 kts 95°
2026-02-17 11:27 47.45995 9.02143 14652 ft 401 kts 58°
2026-02-17 11:27 47.47605 9.05498 15246 ft 393 kts 40°
2026-02-17 11:27 47.49700 9.07916 15837 ft 384 kts 23°
2026-02-17 11:27 47.52120 9.09461 16488 ft 379 kts 14°
2026-02-17 11:28 47.54594 9.10839 17155 ft 380 kts 14°
2026-02-17 11:28 47.57074 9.12228 17792 ft 382 kts 14°
2026-02-17 11:28 47.59560 9.13629 18407 ft 384 kts 14°
2026-02-17 11:28 47.62060 9.15042 18945 ft 385 kts 14°
2026-02-17 11:29 47.64562 9.16458 19489 ft 386 kts 13°
2026-02-17 11:29 47.67081 9.17883 20009 ft 388 kts 13°
2026-02-17 11:29 47.69604 9.19312 20497 ft 389 kts 13°
2026-02-17 11:29 47.72141 9.20749 21000 ft 390 kts 13°
2026-02-17 11:30 47.74679 9.22186 21490 ft 391 kts 13°
2026-02-17 11:30 47.77227 9.23630 21966 ft 392 kts 12°
2026-02-17 11:30 47.78915 9.24586 22279 ft 393 kts 12°
2026-02-17 11:31 47.84037 9.27492 23197 ft 395 kts 12°
2026-02-17 11:31 47.86615 9.28907 23635 ft 392 kts
2026-02-17 11:31 47.89250 9.29651 23998 ft 384 kts
2026-02-17 11:31 47.91900 9.30234 24369 ft 385 kts
2026-02-17 11:32 47.94545 9.30816 24733 ft 385 kts 360°
2026-02-17 11:32 47.97198 9.31396 25094 ft 385 kts 360°
2026-02-17 11:32 47.99852 9.31975 25432 ft 385 kts 359°
2026-02-17 11:32 48.02501 9.32552 25747 ft 385 kts 359°
2026-02-17 11:33 48.05152 9.33129 26067 ft 386 kts 359°
2026-02-17 11:33 48.07815 9.33711 26375 ft 387 kts 359°
2026-02-17 11:33 48.10488 9.34295 26625 ft 388 kts 359°
2026-02-17 11:33 48.13166 9.34883 26889 ft 389 kts 359°
2026-02-17 11:34 48.15846 9.35474 27138 ft 390 kts 359°
2026-02-17 11:34 48.18536 9.36071 27391 ft 390 kts 359°
2026-02-17 11:34 48.21182 9.36662 27745 ft 388 kts 359°
2026-02-17 11:35 48.26488 9.37843 28525 ft 383 kts 359°
2026-02-17 11:35 48.29126 9.38422 28872 ft 384 kts 359°
2026-02-17 11:35 48.31782 9.39000 29069 ft 386 kts 359°
2026-02-17 11:35 48.34439 9.39583 29374 ft 386 kts 359°
2026-02-17 11:36 48.37096 9.40175 29740 ft 385 kts 359°
2026-02-17 11:36 48.39740 9.40767 30075 ft 383 kts 359°
2026-02-17 11:36 48.42372 9.41355 30376 ft 382 kts 359°
2026-02-17 11:36 48.44992 9.41941 30655 ft 380 kts 359°
2026-02-17 11:37 48.47608 9.42524 30924 ft 380 kts 359°
2026-02-17 11:37 48.50223 9.43105 31216 ft 379 kts 359°
2026-02-17 11:37 48.52822 9.43680 31512 ft 377 kts 358°
2026-02-17 11:37 48.55418 9.44256 31798 ft 376 kts 358°
2026-02-17 11:38 48.58005 9.44834 32066 ft 375 kts 358°
2026-02-17 11:38 48.60580 9.45412 32356 ft 374 kts 358°
2026-02-17 11:38 48.63156 9.45995 32653 ft 373 kts 358°
2026-02-17 11:39 48.68283 9.47149 33220 ft 372 kts 358°
2026-02-17 11:39 48.70844 9.47722 33478 ft 372 kts 359°
2026-02-17 11:39 48.73407 9.48295 33682 ft 373 kts 359°
2026-02-17 11:39 48.75981 9.48873 33903 ft 374 kts 359°
2026-02-17 11:40 48.78554 9.49455 34118 ft 374 kts 359°
2026-02-17 11:40 48.81127 9.50038 34325 ft 374 kts 359°
2026-02-17 11:40 48.83709 9.50623 34496 ft 375 kts 359°
2026-02-17 11:40 48.86292 9.51207 34668 ft 376 kts 359°
2026-02-17 11:41 48.88885 9.51794 34802 ft 377 kts 359°
2026-02-17 11:41 48.91497 9.52381 34877 ft 381 kts 359°
2026-02-17 11:41 48.96801 9.53568 34838 ft 388 kts 359°
2026-02-17 11:42 49.02149 9.54787 34837 ft 389 kts 359°
2026-02-17 11:43 49.10182 9.56629 34836 ft 389 kts 359°
2026-02-17 11:43 49.15501 9.57839 34853 ft 390 kts 360°
2026-02-17 11:44 49.20876 9.59070 34839 ft 391 kts 360°
2026-02-17 11:44 49.26259 9.60316 34814 ft 392 kts 360°
2026-02-17 11:45 49.31651 9.61562 34805 ft 392 kts 360°
2026-02-17 11:45 49.37058 9.62806 34827 ft 393 kts
2026-02-17 11:46 49.42481 9.64054 34805 ft 395 kts
2026-02-17 11:46 49.47921 9.65316 34797 ft 396 kts
2026-02-17 11:47 49.56103 9.67221 34800 ft 397 kts
2026-02-17 11:47 49.61582 9.68500 34809 ft 399 kts
2026-02-17 11:48 49.67074 9.69784 34792 ft 400 kts
2026-02-17 11:48 49.72548 9.71063 34788 ft 401 kts
2026-02-17 11:49 49.78066 9.72348 34787 ft 401 kts
2026-02-17 11:49 49.83600 9.73647 34793 ft 403 kts
2026-02-17 11:50 49.89152 9.74956 34784 ft 404 kts
2026-02-17 11:51 49.97495 9.76938 34779 ft 405 kts
2026-02-17 11:51 50.03064 9.78262 34802 ft 406 kts
2026-02-17 11:52 50.08657 9.79589 34781 ft 407 kts
2026-02-17 11:52 50.14273 9.80927 34773 ft 408 kts
2026-02-17 11:53 50.19895 9.82281 34768 ft 409 kts
2026-02-17 11:53 50.25535 9.83634 34791 ft 410 kts
2026-02-17 11:54 50.31187 9.84980 34772 ft 412 kts
2026-02-17 11:54 50.36853 9.86419 34764 ft 416 kts
2026-02-17 11:55 50.42247 9.90199 34758 ft 439 kts 27°
2026-02-17 11:55 50.44612 9.93324 34754 ft 451 kts 37°
2026-02-17 11:55 50.48938 10.00515 34778 ft 454 kts 39°
2026-02-17 11:56 50.53240 10.07694 34763 ft 454 kts 38°
2026-02-17 11:56 50.57577 10.14934 34762 ft 455 kts 39°
2026-02-17 11:57 50.61936 10.22243 34756 ft 456 kts 39°
2026-02-17 11:57 50.65995 10.29907 34757 ft 468 kts 50°
2026-02-17 11:58 50.69171 10.38955 34767 ft 472 kts 54°
2026-02-17 11:59 50.73860 10.52652 34758 ft 473 kts 54°
2026-02-17 11:59 50.76984 10.61811 34754 ft 473 kts 54°
2026-02-17 12:00 50.80097 10.70978 34752 ft 473 kts 54°
2026-02-17 12:00 50.83208 10.80157 34757 ft 474 kts 54°
2026-02-17 12:01 50.86317 10.89359 34793 ft 474 kts 55°
2026-02-17 12:01 50.89413 10.98561 34779 ft 473 kts 55°
2026-02-17 12:02 50.92501 11.07772 34771 ft 473 kts 55°
2026-02-17 12:02 50.95584 11.16989 34769 ft 473 kts 55°
2026-02-17 12:03 51.00167 11.30794 34751 ft 473 kts 55°
2026-02-17 12:03 51.03229 11.40044 34782 ft 473 kts 56°
2026-02-17 12:04 51.06292 11.49313 34773 ft 473 kts 56°
2026-02-17 12:04 51.09336 11.58567 34512 ft 472 kts 55°
2026-02-17 12:05 51.11140 11.62839 34277 ft 459 kts 42°
2026-02-17 12:05 51.13263 11.66632 34045 ft 458 kts 41°
2026-02-17 12:05 51.15388 11.70416 33682 ft 459 kts 41°
2026-02-17 12:05 51.17517 11.74216 33172 ft 459 kts 42°
2026-02-17 12:06 51.19638 11.78014 32671 ft 459 kts 42°
2026-02-17 12:06 51.21754 11.81815 32181 ft 459 kts 43°
2026-02-17 12:06 51.23876 11.85638 31686 ft 459 kts 43°
2026-02-17 12:07 51.28113 11.93279 30724 ft 459 kts 43°
2026-02-17 12:07 51.30235 11.97102 30242 ft 459 kts 43°
2026-02-17 12:07 51.32353 12.00920 29774 ft 459 kts 43°
2026-02-17 12:07 51.34470 12.04747 29222 ft 459 kts 43°
2026-02-17 12:08 51.36564 12.08537 28669 ft 459 kts 43°
2026-02-17 12:08 51.38680 12.12378 28114 ft 460 kts 43°
2026-02-17 12:08 51.40821 12.16271 27566 ft 461 kts 44°
2026-02-17 12:08 51.42939 12.20133 27081 ft 461 kts 44°
2026-02-17 12:09 51.45031 12.23953 26543 ft 462 kts 44°
2026-02-17 12:09 51.47150 12.27831 26006 ft 462 kts 44°
2026-02-17 12:09 51.49269 12.31711 25478 ft 463 kts 44°
2026-02-17 12:09 51.51390 12.35601 24960 ft 464 kts 45°
2026-02-17 12:10 51.53519 12.39510 24449 ft 465 kts 45°
2026-02-17 12:10 51.55646 12.43421 23944 ft 463 kts 45°
2026-02-17 12:10 51.57754 12.47304 23424 ft 460 kts 45°
2026-02-17 12:11 51.61919 12.54996 22237 ft 452 kts 45°
2026-02-17 12:11 51.63977 12.58806 21630 ft 449 kts 45°
2026-02-17 12:11 51.66023 12.62602 21055 ft 446 kts 45°
2026-02-17 12:11 51.68045 12.66360 20481 ft 443 kts 46°
2026-02-17 12:12 51.70056 12.70095 19939 ft 439 kts 46°
2026-02-17 12:12 51.72049 12.73803 19379 ft 436 kts 46°
2026-02-17 12:12 51.74024 12.77478 18849 ft 432 kts 46°
2026-02-17 12:12 51.75989 12.81140 18312 ft 430 kts 46°
2026-02-17 12:13 51.77934 12.84773 17764 ft 427 kts 46°
2026-02-17 12:13 51.79869 12.88393 17165 ft 424 kts 46°
2026-02-17 12:13 51.81789 12.91991 16599 ft 421 kts 46°
2026-02-17 12:13 51.83689 12.95557 16029 ft 418 kts 46°
2026-02-17 12:14 51.85581 12.99109 15460 ft 415 kts 46°
2026-02-17 12:14 51.87456 13.02638 14799 ft 411 kts 46°
2026-02-17 12:14 51.88686 13.04955 14373 ft 409 kts 46°
2026-02-17 12:15 51.92366 13.11895 13063 ft 403 kts 46°
2026-02-17 12:15 51.94182 13.15328 12439 ft 398 kts 46°
2026-02-17 12:15 51.96541 13.19799 11794 ft 387 kts 46°
2026-02-17 12:15 51.97704 13.22013 11616 ft 377 kts 46°
2026-02-17 12:16 51.99374 13.25194 11350 ft 364 kts 46°
2026-02-17 12:16 52.00973 13.28246 11081 ft 342 kts 46°
2026-02-17 12:16 52.02462 13.31096 10834 ft 319 kts 46°
2026-02-17 12:16 52.03875 13.33797 10583 ft 311 kts 45°
2026-02-17 12:17 52.05267 13.36445 10297 ft 305 kts 45°
2026-02-17 12:17 52.06632 13.39046 9988 ft 301 kts 45°
2026-02-17 12:17 52.07997 13.41648 9674 ft 303 kts 45°
2026-02-17 12:17 52.09338 13.44207 9478 ft 294 kts 45°
2026-02-17 12:18 52.10654 13.46724 9129 ft 290 kts 45°
2026-02-17 12:18 52.11954 13.49218 8748 ft 288 kts 45°
2026-02-17 12:18 52.13238 13.51659 8370 ft 286 kts 45°
2026-02-17 12:19 52.15814 13.56546 7758 ft 282 kts 45°
2026-02-17 12:19 52.17078 13.58944 7489 ft 276 kts 45°
2026-02-17 12:19 52.18316 13.61297 7229 ft 272 kts 45°
2026-02-17 12:19 52.19541 13.63634 6972 ft 270 kts 46°
2026-02-17 12:20 52.20740 13.65978 6787 ft 269 kts 46°
2026-02-17 12:20 52.21934 13.68327 6757 ft 269 kts 46°
2026-02-17 12:20 52.23131 13.70671 6754 ft 269 kts 46°
2026-02-17 12:20 52.24331 13.73022 6756 ft 269 kts 46°
2026-02-17 12:21 52.25532 13.75374 6757 ft 269 kts 46°
2026-02-17 12:21 52.26720 13.77709 6753 ft 263 kts 46°
2026-02-17 12:21 52.27882 13.80000 6592 ft 261 kts 46°
2026-02-17 12:21 52.29028 13.82263 6344 ft 257 kts 46°
2026-02-17 12:22 52.30168 13.84513 6043 ft 256 kts 46°
2026-02-17 12:22 52.31304 13.86746 5721 ft 255 kts 46°
2026-02-17 12:22 52.32438 13.88969 5400 ft 254 kts 46°
2026-02-17 12:23 52.34684 13.93361 4806 ft 248 kts 46°
2026-02-17 12:23 52.35812 13.95462 4522 ft 242 kts 37°
2026-02-17 12:23 52.37250 13.96623 4220 ft 227 kts
2026-02-17 12:23 52.38766 13.96384 3901 ft 217 kts 339°
2026-02-17 12:24 52.40188 13.95577 3586 ft 216 kts 336°
2026-02-17 12:24 52.41522 13.94492 3260 ft 212 kts 315°
2026-02-17 12:24 52.42264 13.92516 3042 ft 202 kts 283°
2026-02-17 12:24 52.42494 13.90259 3004 ft 202 kts 276°
2026-02-17 12:25 52.42642 13.87964 3004 ft 203 kts 275°
2026-02-17 12:25 52.42776 13.85663 3006 ft 203 kts 275°
2026-02-17 12:25 52.42901 13.83366 3004 ft 203 kts 272°
2026-02-17 12:25 52.42617 13.81116 3000 ft 204 kts 250°
2026-02-17 12:26 52.42106 13.78953 3002 ft 204 kts 250°
2026-02-17 12:26 52.41595 13.76785 2998 ft 204 kts 250°
2026-02-17 12:26 52.41086 13.74613 3006 ft 204 kts 251°
2026-02-17 12:27 52.40072 13.70287 2627 ft 200 kts 250°
2026-02-17 12:27 52.39579 13.68184 2381 ft 195 kts 250°
2026-02-17 12:27 52.39102 13.66159 2078 ft 185 kts 249°
2026-02-17 12:27 52.38651 13.64264 1801 ft 170 kts 249°
2026-02-17 12:28 52.38258 13.62573 1683 ft 146 kts 250°
2026-02-17 12:28 52.37898 13.61008 1407 ft 145 kts 249°
2026-02-17 12:28 52.37537 13.59496 1174 ft 141 kts 249°
2026-02-17 12:28 52.37183 13.58000 952 ft 140 kts 249°
2026-02-17 12:29 52.36838 13.56515 747 ft 139 kts 249°
2026-02-17 12:29 52.36487 13.55046 562 ft 140 kts 249°
2026-02-17 12:29 52.36139 13.53569 379 ft 139 kts 249°
2026-02-17 12:29 52.35792 13.52096 198 ft 139 kts 249°
2026-02-17 12:30 52.35469 13.50744 155 ft 108 kts 248°
2026-02-17 12:30 52.35260 13.49856 154 ft 57 kts 249°
2026-02-17 12:30 52.35232 13.49503 154 ft 24 kts 270°
2026-02-17 12:31 52.35253 13.49285 154 ft 0 kts 286°
2026-02-17 12:31 52.35282 13.49247 154 ft 13 kts 332°
2026-02-17 12:31 52.35377 13.49182 154 ft 16 kts 341°
2026-02-17 12:32 52.35455 13.49277 154 ft 16 kts 67°
2026-02-17 12:32 52.35496 13.49458 154 ft 18 kts 69°
2026-02-17 12:32 52.35544 13.49659 154 ft 20 kts 69°
2026-02-17 12:32 52.35595 13.49875 154 ft 21 kts 69°
2026-02-17 12:33 52.35652 13.50111 154 ft 23 kts 68°
2026-02-17 12:33 52.35712 13.50366 154 ft 25 kts 69°
2026-02-17 12:33 52.35774 13.50626 154 ft 22 kts 69°
2026-02-17 12:33 52.35834 13.50780 154 ft 14 kts 11°
2026-02-17 12:34 52.35939 13.50719 154 ft 21 kts 339°
2026-02-17 12:34 52.36088 13.50626 155 ft 24 kts 339°
2026-02-17 12:34 52.36241 13.50529 155 ft 20 kts 339°
2026-02-17 12:35 52.36371 13.50522 155 ft 8 kts 70°
2026-02-17 12:35 52.36386 13.50587 155 ft 2 kts 69°
2026-02-17 12:35 52.36387 13.50592 155 ft 1 kts 68°
2026-02-17 12:35 52.36388 13.50594 155 ft 0 kts 68°